| time (UTC) | temp F | wind direction | speed MPH | gust MPH | rain 1hr in | rain 24hr in | rain mn in | humidity % | barometer mb |
| 20260505163008 | 67 | 234 | 3.0 | 8.0 | 0.00 | 0.32 | 0.00 | 70 | 1010.6 |
| 20260505161504 | 68 | 208 | 4.0 | 7.0 | 0.00 | 0.32 | 0.00 | 67 | 1010.4 |
| 20260505153021 | 67 | 248 | 3.0 | 7.0 | 0.00 | 0.33 | 0.00 | 72 | 1010.8 |
| 20260505151541 | 67 | 234 | 3.0 | 7.0 | 0.00 | 0.33 | 0.00 | 72 | 1010.8 |
| 20260505124530 | 67 | 231 | 4.0 | 8.0 | 0.00 | 0.33 | 0.00 | 74 | 1011.3 |
| 20260505123108 | 67 | 224 | 5.0 | 9.0 | 0.00 | 0.33 | 0.00 | 74 | 1011.5 |
| 20260505121515 | 66 | 210 | 5.0 | 9.0 | 0.00 | 0.33 | 0.00 | 76 | 1011.5 |
| 20260505120053 | 66 | 234 | 7.0 | 12.0 | 0.00 | 0.33 | 0.00 | 76 | 1011.6 |
| 20260505114501 | 67 | 206 | 6.0 | 9.0 | 0.00 | 0.33 | 0.00 | 75 | 1011.5 |
| 20260505113031 | 66 | 205 | 4.0 | 8.0 | 0.00 | 0.33 | 0.00 | 78 | 1011.6 |
| 20260505111550 | 65 | 296 | 5.0 | 8.0 | 0.00 | 0.33 | 0.00 | 78 | 1011.7 |
| 20260505101523 | 63 | 243 | 5.0 | 10.0 | 0.00 | 0.33 | 0.00 | 82 | 1011.7 |
| 20260505100054 | 63 | 284 | 4.0 | 9.0 | 0.00 | 0.33 | 0.00 | 84 | 1011.8 |
| 20260505094507 | 63 | 232 | 6.0 | 8.0 | 0.00 | 0.33 | 0.00 | 85 | 1011.9 |
| 20260505093037 | 63 | 244 | 6.0 | 9.0 | 0.00 | 0.33 | 0.00 | 86 | 1011.8 |
| 20260505091536 | 63 | 223 | 7.0 | 11.0 | 0.00 | 0.33 | 0.00 | 88 | 1011.6 |
| 20260505090005 | 62 | 223 | 6.0 | 12.0 | 0.00 | 0.33 | 0.00 | 90 | 1011.7 |
| 20260505084522 | 62 | 229 | 4.0 | 9.0 | 0.00 | 0.33 | 0.00 | 91 | 1011.6 |
| 20260505083050 | 61 | 234 | 5.0 | 10.0 | 0.00 | 0.33 | 0.00 | 92 | 1011.3 |
| 20260505081508 | 61 | 244 | 4.0 | 8.0 | 0.00 | 0.33 | 0.00 | 92 | 1011.2 |
| 20260505080039 | 60 | 275 | 4.0 | 9.0 | 0.00 | 0.33 | 0.00 | 92 | 1011.2 |
| 20260505074531 | 61 | 293 | 3.0 | 10.0 | 0.00 | 0.33 | 0.00 | 92 | 1011.0 |
| 20260505073102 | 61 | 116 | 3.0 | 9.0 | 0.00 | 0.34 | 0.00 | 92 | 1010.7 |
| 20260505071539 | 61 | 149 | 1.0 | 5.0 | 0.00 | 0.34 | 0.00 | 92 | 1010.9 |
| 20260505070053 | 60 | 120 | 0.0 | 5.0 | 0.00 | 0.34 | 0.00 | 93 | 1010.9 |
| 20260505064511 | 59 | 78 | 2.0 | 8.0 | 0.00 | 0.34 | 0.00 | 93 | 1010.7 |
| 20260505063035 | 59 | 86 | 3.0 | 7.0 | 0.00 | 0.37 | 0.00 | 93 | 1010.6 |
| 20260505061558 | 58 | 86 | 2.0 | 7.0 | 0.00 | 0.37 | 0.00 | 92 | 1010.6 |
| 20260505060021 | 58 | 72 | 2.0 | 6.0 | 0.00 | 0.37 | 0.00 | 92 | 1010.5 |
| 20260505054552 | 58 | 73 | 4.0 | 10.0 | 0.00 | 0.37 | 0.00 | 92 | 1010.6 |
| 20260505053012 | 58 | 57 | 1.0 | 9.0 | 0.00 | 0.40 | 0.00 | 92 | 1010.4 |
| 20260505051536 | 58 | 89 | 3.0 | 10.0 | 0.00 | 0.40 | 0.00 | 92 | 1010.2 |
| 20260505041542 | 57 | 118 | 2.0 | 7.0 | 0.00 | 0.43 | 0.00 | 92 | 1010.0 |
| 20260505040010 | 57 | 105 | 3.0 | 9.0 | 0.00 | 0.43 | 0.00 | 92 | 1009.7 |
| 20260505034528 | 57 | 133 | 1.0 | 7.0 | 0.00 | 0.43 | 0.00 | 92 | 1009.7 |
| 20260505033100 | 57 | 86 | 3.0 | 8.0 | 0.00 | 0.43 | 0.00 | 92 | 1009.6 |
| 20260505031558 | 57 | 50 | 1.0 | 13.0 | 0.00 | 0.43 | 0.00 | 92 | 1009.8 |
| 20260505030027 | 57 | 104 | 3.0 | 11.0 | 0.00 | 0.43 | 0.00 | 92 | 1010.0 |
| 20260505024545 | 57 | 71 | 6.0 | 10.0 | 0.01 | 0.43 | 0.00 | 92 | 1010.0 |
| 20260505023010 | 57 | 148 | 2.0 | 7.0 | 0.10 | 0.43 | 0.43 | 92 | 1010.3 |
| 20260505021528 | 57 | 75 | 6.0 | 10.0 | 0.10 | 0.43 | 0.43 | 92 | 1010.2 |
| 20260505020104 | 57 | 148 | 3.0 | 10.0 | 0.10 | 0.43 | 0.43 | 92 | 1010.0 |
| 20260505014515 | 57 | 73 | 3.0 | 11.0 | 0.09 | 0.43 | 0.43 | 92 | 1010.2 |
| 20260505013044 | 57 | 75 | 3.0 | 10.0 | 0.00 | 0.33 | 0.33 | 92 | 1010.0 |
| 20260505011552 | 57 | 126 | 4.0 | 11.0 | 0.00 | 0.33 | 0.33 | 92 | 1010.1 |
| 20260505010016 | 56 | 109 | 3.0 | 9.0 | 0.00 | 0.33 | 0.33 | 91 | 1010.4 |
| 20260505004536 | 57 | 124 | 3.0 | 14.0 | 0.00 | 0.33 | 0.33 | 91 | 1010.6 |
| 20260505003003 | 57 | 80 | 6.0 | 15.0 | 0.02 | 0.33 | 0.33 | 91 | 1010.9 |
| 20260505001522 | 57 | 112 | 4.0 | 11.0 | 0.03 | 0.33 | 0.33 | 91 | 1010.8 |
| 20260504234510 | 57 | 128 | 3.0 | 14.0 | 0.08 | 0.33 | 0.33 | 91 | 1011.3 |
| 20260504233043 | 57 | 80 | 8.0 | 21.0 | 0.07 | 0.31 | 0.31 | 90 | 1011.0 |
| 20260504231559 | 58 | 103 | 4.0 | 13.0 | 0.11 | 0.30 | 0.30 | 90 | 1011.1 |
| 20260504230028 | 58 | 53 | 6.0 | 22.0 | 0.15 | 0.28 | 0.28 | 89 | 1010.9 |
| 20260504224526 | 58 | 288 | 6.0 | 22.0 | 0.13 | 0.25 | 0.25 | 89 | 1010.9 |
| 20260504223056 | 58 | 71 | 7.0 | 16.0 | 0.13 | 0.24 | 0.24 | 88 | 1011.1 |
| 20260504221516 | 58 | 94 | 7.0 | 18.0 | 0.06 | 0.18 | 0.18 | 86 | 1011.5 |
| 20260504220053 | 59 | 73 | 6.0 | 15.0 | 0.01 | 0.13 | 0.13 | 84 | 1011.8 |
| 20260504214549 | 59 | 75 | 6.0 | 15.0 | 0.00 | 0.12 | 0.12 | 83 | 1011.5 |
| 20260504213009 | 59 | 94 | 10.0 | 23.0 | 0.00 | 0.12 | 0.12 | 83 | 1012.1 |
| 20260504211506 | 59 | 146 | 5.0 | 19.0 | 0.00 | 0.12 | 0.12 | 83 | 1012.2 |
| 20260504210036 | 59 | 73 | 8.0 | 18.0 | 0.00 | 0.12 | 0.12 | 82 | 1012.1 |
| 20260504204533 | 59 | 138 | 5.0 | 21.0 | 0.00 | 0.12 | 0.12 | 81 | 1012.1 |
| 20260504203005 | 59 | 82 | 6.0 | 17.0 | 0.00 | 0.12 | 0.12 | 80 | 1012.0 |
| 20260504201520 | 59 | 73 | 5.0 | 16.0 | 0.00 | 0.12 | 0.12 | 79 | 1012.3 |
| 20260504200055 | 60 | 61 | 6.0 | 16.0 | 0.00 | 0.12 | 0.12 | 78 | 1012.5 |
| 20260504194506 | 60 | 109 | 6.0 | 17.0 | 0.00 | 0.12 | 0.12 | 76 | 1012.8 |
| 20260504193035 | 60 | 121 | 8.0 | 16.0 | 0.00 | 0.12 | 0.12 | 76 | 1012.7 |
| 20260504191558 | 59 | 82 | 7.0 | 18.0 | 0.00 | 0.12 | 0.12 | 76 | 1012.4 |
| 20260504190022 | 59 | 96 | 5.0 | 14.0 | 0.00 | 0.12 | 0.12 | 77 | 1012.4 |
| 20260504184552 | 59 | 109 | 7.0 | 15.0 | 0.00 | 0.12 | 0.12 | 78 | 1012.3 |
| 20260504183010 | 59 | 109 | 7.0 | 17.0 | 0.00 | 0.12 | 0.12 | 79 | 1012.5 |
| 20260504181528 | 58 | 90 | 8.0 | 19.0 | 0.01 | 0.12 | 0.12 | 82 | 1012.5 |
| 20260504180056 | 58 | 115 | 4.0 | 16.0 | 0.01 | 0.12 | 0.12 | 83 | 1012.4 |
| 20260504174515 | 58 | 73 | 4.0 | 17.0 | 0.01 | 0.12 | 0.12 | 82 | 1012.3 |
| 20260504173041 | 60 | 84 | 7.0 | 18.0 | 0.01 | 0.12 | 0.12 | 80 | 1012.5 |
| 20260504171538 | 60 | 130 | 6.0 | 17.0 | 0.00 | 0.11 | 0.11 | 81 | 1012.5 |